Flag for Germany Weather past 2 weeks in Bremerhaven, Bremen, Germany

Now
63 °F

Broken clouds.


Feels Like: 63 °F
Forecast: 56 / 68 °F
Wind: 3 mph from Northeast

Location: Nordholz

Current Time: Oct 2, 2014 at 6:18:34 PM

Latest Report: Oct 2, 2014 at 5:20 PM


Visibility: N/A

Pressure: 30.36 "Hg

Humidity: 83%

Dew point: 57 °F

Location of BremerhavenLocation

Historic Weather in Bremerhaven — Graph

°F

Bremerhaven temperature yesterday

Maximum temperature yesterday: 66 °F (at 2:20 PM)
Minimum temperature yesterday: 54 °F (at 5:20 AM)
Average temperature yesterday: 60 °F

Past Weeks' High & Low Weather Summary

 TemperatureHumidityPressure
High75 °F (Sep 19, 3:20 PM)100% (Sep 18, 6:20 AM)30.39 "Hg (Sep 18, 6:20 AM)
Low43 °F (Sep 23, 5:20 AM)49% (Sep 27, 3:20 PM)29.74 "Hg (Sep 24, 3:51 PM)
Average59 °F81%30.07 "Hg
* Reported Sep 17 4:20 PM — Oct 2 4:20 PM, Bremerhaven, Weather by CustomWeather, © 2014

Note: Actual official high and low records may vary slightly from our data, if they occured in-between our weather recording intervals... More about our weather records

Advertising

Bremerhaven weather history for previous 24 hours

 ConditionsComfort  
Time TempWeatherWind HumidityBarometerVisibility
4:20 PM
Oct 2
63 °FPartly sunny.5 mph83%30.36 "HgN/A
3:20 PM64 °FBroken clouds.2 mph78%30.36 "HgN/A
2:20 PM63 °FBroken clouds.2 mph83%30.39 "HgN/A
1:20 PM64 °FPartly sunny.3 mph78%30.39 "HgN/A
12:20 PM64 °FBroken clouds.2 mph73%30.39 "HgN/A
11:20 AM63 °FBroken clouds.1 mph77%30.39 "Hg5 mi
10:20 AM61 °FFog.2 mph94%30.39 "Hg1 mi
10:02 AM61 °FFog.3 mph94%30.39 "Hg1 mi
9:20 AM61 °FFog.3 mph94%30.36 "Hg1 mi
8:20 AM59 °FFog.3 mph100%30.36 "Hg1 mi
7:20 AM59 °FFog.5 mph94%30.36 "Hg1 mi
6:20 AM59 °FFog.3 mph94%30.33 "Hg1 mi
5:48 AM59 °FFog.3 mph94%30.33 "Hg1 mi
5:20 AM59 °FFog.5 mph94%30.33 "Hg1 mi
4:20 AM59 °FFog.5 mph94%30.33 "Hg1 mi
3:20 AM59 °FFog.5 mph94%30.33 "Hg2 mi
2:20 AM59 °FFog.6 mph94%30.33 "Hg2 mi
1:20 AM59 °FFog.5 mph94%30.33 "Hg2 mi
12:20 AM61 °FFog.7 mph94%30.33 "Hg2 mi
11:20 PM
Oct 1
61 °FDrizzle. Fog.9 mph94%30.33 "Hg1 mi
10:57 PM61 °FFog.7 mph94%30.30 "Hg2 mi
10:20 PM61 °FPassing clouds.6 mph88%30.30 "Hg4 mi
9:56 PM61 °FPassing clouds.5 mph88%30.30 "Hg4 mi
9:20 PM59 °FFog.1 mph94%30.30 "Hg2 mi
8:20 PM61 °FFog.3 mph88%30.30 "Hg2 mi
7:53 PM61 °FFog.1 mph88%30.30 "Hg2 mi
7:20 PM61 °FFog.1 mph88%30.30 "Hg2 mi
6:20 PM64 °FPartly sunny.2 mph78%30.27 "Hg4 mi
Weather by CustomWeather, © 2014

See weather overviewHow to use our weather pages